Terminal Aerodrome Forecast
Issued by NWS Lake Charles, LA

Home | Current Version | Previous Version | Text Only | Print | Product List | Glossary On
Versions: 1 2 3 4 5 6 7 8 9 10 11 12 13 14
000
FTUS44 KLCH 270200 AAB
TAFLCH
TAF AMD
KLCH 270223Z 2702/2724 13014G21KT P6SM VCSH OVC007
     FM270600 13010KT 5SM BR VCSH OVC007
     FM270900 14008KT 3SM BR VCSH OVC003
     FM271500 16007KT 4SM -RA BR VCTS OVC007CB
     FM271800 19009KT 4SM -TSRA BR OVC007CB=

USA.gov is the U.S. government's official web portal to all federal, state and local government web resources and services.